Regional Weather Roundup
Issued by NWS

Current Version | Previous Version | Text Only | Print | Product List | Glossary On
Versions: 1 2 3 4 5 6 7 8 9 10 11 12 13 14 15 16 17 18 19 20 21 22 23 24 25 26 27 28 29 30 31 32 33 34 35 36 37 38 39 40 41 42 43 44 45 46 47 48 49 50
000
ASUS44 KLIX 250210
RWRLA
LOUISIANA WEATHER ROUNDUP
NATIONAL WEATHER SERVICE NEW ORLEANS LA
900 PM CDT THU JUL 24 2014

NOTE: "FAIR" INDICATES FEW OR NO CLOUDS BELOW 12,000 FEET WITH NO
      SIGNIFICANT WEATHER AND/OR OBSTRUCTIONS TO VISIBILITY.
      SKY/WX - SKY CONDITION AND SIGNIFICANT WEATHER.
      TMP - AIR TEMPERATURE.    DP   - DEWPOINT TEMPERATURE.
      RH  - RELATIVE HUMIDITY.  PRES - PRESSURE.
      HX  - HEAT INDEX.         WCI  - WIND CHILL INDEX.

*  THESE STATIONS ARE NOT NWS OR FAA STATIONS AND ARE NOT UNDER
   NWS QUALITY CONTROL.

LAZ040-048-061>063-065-066-069-250300-
SOUTHEAST LOUISIANA

CITY           SKY/WX    TMP DP  RH WIND       PRES   REMARKS
N.O. AUDUBON     N/A     82  75  81 MISG        N/A
N.O. INTL ARPT PTCLDY    82  75  79 S8        29.96R
N.O. LAKEFRONT CLEAR     86  69  56 CALM      29.97R
N.O. DOWNTOWN* FAIR      84  72  65 S3        29.97R
SLIDELL        CLEAR     79  75  87 CALM      29.96R
BATON ROUGE    PTCLDY    78  73  84 CALM      29.97R
BOOTHVILLE     MOCLDY    82  73  74 SW6       29.98R
BELLE CHASSE   MOCLDY    79  74  84 SW3       29.96R
BOGALUSA*      FAIR      82  75  78 CALM      29.98R
GALLIANO*      NOT AVBL
NEW ROADS*     FAIR      82  76  84 CALM      29.96R
GONZALES*      FAIR      79  78  96 W3        29.97R
HAMMOND*       RAIN      81  70  69 NE13      29.98R
HOUMA*         PTCLDY    76  69  77 CALM      29.97R
PORT FOURCHON* CLOUDY    82  75  78 W3        29.99R

$$

LAZ041-044-053-054-250300-
SOUTHWEST LOUISIANA

CITY           SKY/WX    TMP DP  RH WIND       PRES   REMARKS
LAKE CHARLES   CLEAR     81  77  88 CALM      29.95R
LAFAYETTE      CLEAR     80  75  84 CALM      29.97R
PATTERSON      PTCLDY    79  75  89 CALM      30.01R
SALT POINT       N/A     84  76  76 CALM      29.96R
NEW IBERIA     PTCLDY    80  74  81 SW5       29.97R
CHENAULT AIRPK CLEAR     81  73  78 S3        29.97R

$$

LAZ027-028-250300-
CENTRAL LOUISIANA

CITY           SKY/WX    TMP DP  RH WIND       PRES   REMARKS
FORT POLK      CLEAR     80  73  79 CALM      29.97R
ALEXANDRIA INT CLEAR     79  75  87 CALM      29.94R
ALEXANDRIA     CLEAR     79  75  87 CALM      29.96R

$$

LAZ001-002-250300-
NORTHWEST LOUISIANA

CITY           SKY/WX    TMP DP  RH WIND       PRES   REMARKS
SHREVEPORT     CLEAR     81  73  76 NW5       29.97R
BARKSDALE AFB  CLEAR     79  72  78 NE5       29.98R
DTN SHREVEPORT CLEAR     80  72  76 N3        29.98R

$$

LAZ014-016-250300-
NORTHEAST LOUISIANA

CITY           SKY/WX    TMP DP  RH WIND       PRES   REMARKS
MONROE         CLEAR     80  74  81 NE7       29.98R
TALLULAH       CLEAR     79  74  84 N7        29.97R

$$



USA.gov is the U.S. government's official web portal to all federal, state and local government web resources and services.